Quincy, IL

12:38 AM CDT on August 24, 2019 (GMT -0500)
Quincy Regional-Baldwin

Weather History for KUIN - July, 2019

Change the Weather History Date:

Sunday, July 21, 2019

  Actual Average Record
Temperature  
Mean Temperature 80 °F 76 °F  
Max Temperature 88 °F 86 °F 110 °F (1901)
Min Temperature 71 °F 66 °F 52 °F (1944)
Degree Days  
Heating Degree Days 0 0  
Month to date heating degree days 0 0  
Since 1 June heating degree days 5 16  
Since 1 July heating degree days 0 0  
Cooling Degree Days 15 11  
Month to date cooling degree days 336 231  
Year to date cooling degree days 683 544  
Since 1 June cooling degree days 573 458  
Growing Degree Days 30 (Base 50)    
Moisture  
Dew Point 68 °F    
Average Humidity 71    
Maximum Humidity 87    
Minimum Humidity 54    
Precipitation  
Precipitation 0.04 in 0.13 in 2.02 in (2009)
Month to date precipitation 0.98 2.81  
Year to date precipitation 24.38 20.89  
Sea Level Pressure  
Sea Level Pressure 29.91 in    
Wind  
Wind Speed 10 mph (NW)    
Max Wind Speed 28 mph    
Max Gust Speed 37 mph    
Visibility 10 miles    
Events Rain    
T = Trace of Precipitation, MM = Missing Value Source: NWS Daily Summary

Daily Weather History Graph

Daily Weather History Graph

Search for Another Location

Airport or City:

Astronomy

Jul. 21, 2019 Rise Set
Actual Time 5:53 AM CDT 8:28 PM CDT
Civil Twilight 5:22 AM CDT 8:59 PM CDT
Nautical Twilight 4:43 AM CDT 9:38 PM CDT
Astronomical Twilight 3:59 AM CDT 10:22 PM CDT
Moon 11:23 PM CDT (7/21) 10:13 AM CDT (7/21)
Length of Visible Light 15h 37m
Length of Day
14h 35m
Waning Gibbous, 80% of the Moon is Illuminated
Jul 21
Waning Gibbous
Jul 24
Last Quarter
Jul 31
New
Aug 7
First Quarter
Aug 15
Full

Hourly Weather History & Observations

Time (CDT) Temp. Heat Index Dew Point Humidity Pressure Visibility Wind Dir Wind Speed Gust Speed Precip Events Conditions
12:26 AM 75.9 °F - 68.0 °F 76% 29.94 in 9.0 mi West 11.5 mph - 0.03 in Rain Light Rain
12:54 AM 73.9 °F - 66.9 °F 79% 29.90 in 10.0 mi West 10.4 mph - 0.05 in Rain Light Rain
1:54 AM 75.9 °F - 64.0 °F 67% 29.78 in 10.0 mi South 19.6 mph - 0.04 in Rain Light Rain
2:54 AM 79.0 °F - 61.0 °F 54% 29.79 in 10.0 mi WSW 13.8 mph - 0.00 in Rain Light Rain
3:15 AM 81.0 °F 81.7 °F 61.0 °F 50% 29.86 in 10.0 mi NW 23.0 mph 38.0 mph 0.00 in   Partly Cloudy
3:54 AM 75.0 °F - 70.0 °F 84% 29.86 in 10.0 mi NNW 18.4 mph 27.6 mph 0.00 in   Clear
4:54 AM 73.9 °F - 70.0 °F 87% 29.89 in 10.0 mi NNW 13.8 mph - N/A   Clear
5:54 AM 73.9 °F - 68.0 °F 82% 29.89 in 10.0 mi NNW 6.9 mph - N/A   Clear
6:54 AM 73.9 °F - 69.1 °F 85% 29.91 in 10.0 mi NNE 3.5 mph - N/A   Clear
7:54 AM 75.9 °F - 68.0 °F 76% 29.93 in 10.0 mi NNW 5.8 mph - N/A   Clear
8:54 AM 77.0 °F - 68.0 °F 74% 29.96 in 10.0 mi NW 6.9 mph - N/A   Clear
9:54 AM 78.1 °F - 69.1 °F 74% 29.96 in 10.0 mi NW 9.2 mph - N/A   Clear
10:54 AM 81.0 °F 84.1 °F 69.1 °F 67% 29.96 in 10.0 mi West 15.0 mph - N/A   Mostly Cloudy
11:54 AM 82.0 °F 85.5 °F 69.1 °F 65% 29.95 in 10.0 mi WSW 6.9 mph - N/A   Partly Cloudy
12:54 PM 84.0 °F 87.0 °F 68.0 °F 58% 29.94 in 10.0 mi WNW 10.4 mph - N/A   Clear
1:54 PM 86.0 °F 89.4 °F 68.0 °F 55% 29.92 in 10.0 mi West 10.4 mph - N/A   Clear
2:54 PM 87.1 °F 91.3 °F 69.1 °F 55% 29.91 in 10.0 mi West 9.2 mph - N/A   Scattered Clouds
3:54 PM 86.0 °F 90.1 °F 69.1 °F 57% 29.90 in 10.0 mi WNW 9.2 mph - N/A   Partly Cloudy
4:54 PM 84.9 °F 88.8 °F 69.1 °F 59% 29.91 in 10.0 mi NW 10.4 mph - N/A   Partly Cloudy
5:54 PM 86.0 °F 90.7 °F 70.0 °F 59% 29.92 in 10.0 mi North 8.1 mph - N/A   Clear
6:54 PM 82.0 °F 85.5 °F 69.1 °F 65% 29.93 in 10.0 mi NNW 10.4 mph - N/A   Partly Cloudy
7:54 PM 80.1 °F 83.6 °F 71.1 °F 74% 29.92 in 10.0 mi North 9.2 mph - 0.00 in   Mostly Cloudy
8:54 PM 77.0 °F - 70.0 °F 79% 29.94 in 10.0 mi North 11.5 mph - 0.00 in   Mostly Cloudy
9:54 PM 77.0 °F - 70.0 °F 79% 29.96 in 10.0 mi North 10.4 mph - 0.00 in Rain Light Rain
11:54 PM 75.0 °F - 70.0 °F 84% 29.96 in 10.0 mi NNE 11.5 mph - 0.00 in Rain Light Rain